Weather Roundup
Issued by NWS

Home | Current Version | Previous Version | Graphics & Text | Print | Product List | Glossary Off
Versions: 1 2 3 4 5 6 7 8 9 10 11 12 13 14 15 16 17 18 19 20 21 22 23 24 25 26 27 28 29 30 31 32 33 34 35 36 37 38 39 40 41 42 43 44 45 46 47 48 49 50

573
NZUS93 KARX 061610
HRRWXR

CURRENT HOURLY OBSERVATIONS ACROSS
MUCH OF THE UPPER MISSISSIPPI VALLEY
NATIONAL WEATHER SERVICE LA CROSSE WI
1000 AM CST SAT FEB 06 2016


...SOUTHEAST MINNESOTA...


CITY           SKY/WX    TMP DP  RH WIND       PRES   REMARKS
ROCHESTER      CLOUDY    24  22  91 SW12      30.13S FOG     WCI  13
ROCHESTER/MAYO CLOUDY    26  24  93 SW8       30.14S WCI  17
WINONA         CLOUDY    30  23  74 CALM      30.17S
AUSTIN         FOG       25  25 100 SW13      30.14R VSB 1/4 WCI  13
ALBERT LEA     FOG       25  25 100 SW8       30.13S VSB 1/2 WCI  16
DODGE CENTER   LGT SNOW  25  23  93 SW10      30.11S VSB 1   WCI  15
PRESTON        CLOUDY    25  22  90 SW9       30.14F FOG     WCI  15
OWATONNA       LGT SNOW  25  23  93 S14       30.11S WCI  13
FARIBAULT      LGT SNOW  27  25  93 S10G17      N/A  WCI  17
$$

...ELSEWHERE IN MINNESOTA...


CITY           SKY/WX    TMP DP  RH WIND       PRES   REMARKS
MINNEAPOLIS    CLOUDY    28  24  85 S8        30.09F WCI  20
INTNL FALLS    CLOUDY    22  17  81 SE6       29.88F WCI  14
DULUTH         CLOUDY    22  18  85 SW12      29.96F WCI  10
RED WING       CLOUDY    28  23  80 SW6       30.13S WCI  22
REDWOOD FALLS  CLOUDY    29  22  75 SW13      30.04S WCI  19
MANKATO        CLOUDY    27  25  93 S10       30.10S WCI  17
WORTHINGTON    MOSUNNY   23  19  86 SW14      30.08S WCI  11
FAIRMONT       CLOUDY    25  21  86 SW13      30.10S WCI  13
$$

...SOUTHWEST WISCONSIN...


CITY           SKY/WX    TMP DP  RH WIND       PRES   REMARKS
LA CROSSE      CLOUDY    29  23  78 SW9       30.18R WCI  20
PRAIRIE DU CHI CLOUDY    31  25  79 SW5       30.20S WCI  26
BOSCOBEL       CLOUDY    31  27  85 SW12      30.19F WCI  22
LONE ROCK      CLOUDY    30  24  78 SW7       30.19F WCI  23
PLATTEVILLE    CLOUDY    30  28  92 SW12      30.20S WCI  20
FORT MC COY    CLOUDY    29  24  81 W7        30.17R WCI  22
CAMP DOUGLAS   CLOUDY    28  28 100 SW9       30.15S WCI  20
VIROQUA        CLOUDY    28  25  88 SW9       30.14S WCI  19
WIS DELLS      CLOUDY    28  24  84 SW12      30.16S WCI  18
$$

...ELSEWHERE IN WISCONSIN...


CITY           SKY/WX    TMP DP  RH WIND       PRES   REMARKS
MILWAUKEE      CLOUDY    31  22  69 W12       30.20F WCI  22
MADISON        CLOUDY    28  23  81 VRB7      30.18F WCI  21
GREEN BAY      CLOUDY    27  22  81 W9        30.15F WCI  18
EAU CLAIRE     CLOUDY    27  20  75 SW9       30.12R WCI  18
BLACK RVR FLS  CLOUDY    29  23  76 SW7       30.15R WCI  22
MEDFORD        CLOUDY    24  22  91 SW8       30.07R FOG     WCI  15
WAUSAU         CLOUDY    26  21  81 SW8       30.08S WCI  18
WIS RAPIDS     CLOUDY    26  22  84 W8        30.15S WCI  18
MARSHFIELD     CLOUDY    26  21  81 SW10      30.09F HAZE    WCI  16
RICE LAKE      CLOUDY    25  21  85 S9        30.10S WCI  15
$$

...NORTHEAST IOWA...


CITY           SKY/WX    TMP DP  RH WIND       PRES   REMARKS
WATERLOO       CLOUDY    29  26  89 SW12      30.20F WCI  19
DUBUQUE        CLOUDY    29  26  89 W12       30.21S WCI  19
DECORAH        CLOUDY    28  27  93 VRB6G15   30.16R WCI  22
MASON CITY     FOG       25  25 100 SW12      30.17F VSB 1/4 WCI  14
CHARLES CITY   CLOUDY    27  27 100 SW10      30.18S FOG     WCI  17
OELWEIN        CLOUDY    30  30 100 SW9       30.19S FOG     WCI  22
$$

...ELSEWHERE IN IOWA...


CITY           SKY/WX    TMP DP  RH WIND       PRES   REMARKS
DES MOINES     CLOUDY    30  27  88 W5        30.24S FOG     WCI  25
IOWA CITY      CLOUDY    30  24  78 SW5       30.27S WCI  25
FORT DODGE     CLOUDY    27  25  93 SW10      30.19S VSB 1/4 WCI  17
MARSHALLTOWN   CLOUDY    29  27  92 SW9       30.21S FOG     WCI  20
CEDAR RAPIDS   CLOUDY    30  28  92 W7        30.23S FOG     WCI  23
$$

...NORTHERN ILLINOIS...


CITY           SKY/WX    TMP DP  RH WIND       PRES   REMARKS
CHICAGO-OHARE  MOSUNNY   32  23  69 SW12      30.25F WCI  23
CHICAGO-MIDWAY MOSUNNY   33  22  63 SW10      30.27F WCI  25
MOLINE         SUNNY     36  22  56 W7        30.26R WCI  30
ROCKFORD       CLOUDY    30  25  81 SW6       30.26S WCI  24
PEORIA         SUNNY     35  26  69 S7        30.29F WCI  29
$$

NOTE: "FAIR" INDICATES FEW OR NO CLOUDS BELOW 12,000 FEET WITH NO
SIGNIFICANT WEATHER AND/OR OBSTRUCTIONS TO VISIBILITY. WIND
SPEEDS ARE IN MILES-PER-HOUR.




USA.gov is the U.S. government's official web portal to all federal, state and local government web resources and services.